User: anonymous
Location: Caltech
(34.1382°N, 118.1253°W)
Time: 10:55:18
(UTC-07:00)
Language:

TMSAT-1 - Orbit

View from above orbital plane
View from above orbital plane
View from above satellite
View from above satellite

Ground track
Ground track

The orbit data is extracted from the following two-line orbital elements,

1 25396U 98043C   14201.81735796  .00000012  00000-0  23218-4 0  9042
2 25396 098.4402 162.3001 0003023 161.5902 255.9818 14.24180367832949
Epoch (UTC): 20 July 2014 19:36:59
Eccentricity: 0.0003023
inclination: 98.4402°
perigee height: 809 km
apogee height: 813 km
right ascension of ascending node: 162.3001°
argument of perigee: 161.5902°
revolutions per day: 14.24180367
mean anomaly at epoch: 255.9818°
orbit number at epoch: 83294

The dashed part of the orbit path shows where the satellite is in the earth's shadow,  

DLR